User: anonymous   Login
Location: Unspecified
(0.0000°N, 0.0000°E)
Time: 15:36:10
(UTC+02:00)
Language:

SWIFT - Orbit

View from above orbital plane
View from above orbital plane
View from above satellite
View from above satellite

Ground track
Ground track

The orbit data is extracted from the following two-line orbital elements,

1 28485U 04047A   17173.94301351 +.00000842 +00000-0 +27942-4 0  9999
2 28485 020.5569 094.4941 0011184 311.1478 048.7990 15.03741217689053
Epoch (UTC): 22 June 2017 22:37:56
Eccentricity: 0.0011184
inclination: 20.5569°
perigee height: 547 km
apogee height: 563 km
right ascension of ascending node: 94.4941°
argument of perigee: 311.1478°
revolutions per day: 15.03741217
mean anomaly at epoch: 48.7990°
orbit number at epoch: 68905

The dashed part of the orbit path shows where the satellite is in the earth's shadow,  

DLR